Retour au catalogue

STARLINK-33822

ActifCommunicationsVLEO
NORAD 63658·PAYLOAD·🇺🇸 United States

Lancé Apr 25, 2025 depuis Cape Canaveral Space Force Station

Loading…

Prochains Passages (prochaines 24 heures)

TLE

FraisSource: CelesTrak SupGP

Époque: Sep 15, 2026, 02:09 UTC

1 63658C 25083AA  26258.09006944 -.00007358  00000+0 -26649-3 0  2583
2 63658  43.0040  15.7321 0001471 265.8932  10.4888 15.27584792    18

Suivez STARLINK-33822 en temps réel avec AllMySat

Download on the App Store